Weather History for Carbondale, IL

Change the Weather History Date:

Wednesday, January 2, 2013

  Actual Average Record
Temperature  
Mean Temperature 21 °F -  
Max Temperature 30 °F 38 °F 78 °F (1997)
Min Temperature 12 °F 21 °F -3 °F (1940)
Degree Days  
Heating Degree Days 44    
Moisture  
Dew Point 12 °F    
Average Humidity 69    
Maximum Humidity 88    
Minimum Humidity 47    
Precipitation  
Precipitation 0.00 in - - ()
Sea Level Pressure  
Sea Level Pressure 30.28 in    
Wind  
Wind Speed 2 mph (NNW)    
Max Wind Speed 6 mph    
Max Gust Speed -    
Visibility 9 miles    
Events      
Averages and records for this station are not official NWS values.
T = Trace of Precipitation, MM = Missing Value Source: NWS Daily Summary

Daily Weather History Graph

Daily Weather History Graph

Search for Another Location

Airport:

Trip Planner

Search our weather history database for the weather conditions in past years. The results will help you decide how hot, cold, wet, or windy it might be!

Date:

Astronomy

Jan. 02, 2013 Rise Set
Actual Time 7:12 AM CST 4:50 PM CST
Civil Twilight 6:43 AM CST 5:19 PM CST
Nautical Twilight 6:10 AM CST 5:52 PM CST
Astronomical Twilight 5:38 AM CST 6:23 PM CST
Moon 10:15 PM CST (1/2) 10:00 AM CST (1/2)
Length of Visible Light 10h 35m
Length of Day
9h 37m
Waning Gibbous, 75% of the Moon is Illuminated
Jan 2
Waning Gibbous
Jan 4
Last Quarter
Jan 11
New
Jan 18
First Quarter
Jan 26
Full

Hourly Weather History & Observations

Time (CST) Temp. Windchill Dew Point Humidity Pressure Visibility Wind Dir Wind Speed Gust Speed Precip Events Conditions
12:52 AM 19.9 °F 12.1 °F 12.0 °F 71% 30.28 in 10.0 mi North 5.8 mph - N/A   Clear
1:52 AM 19.0 °F 13.9 °F 12.0 °F 74% 30.29 in 10.0 mi NNW 3.5 mph - N/A   Clear
2:52 AM 17.1 °F 11.7 °F 12.0 °F 81% 30.29 in 10.0 mi NNW 3.5 mph - N/A   Clear
3:52 AM 16.0 °F 8.8 °F 10.9 °F 81% 30.28 in 9.0 mi NNW 4.6 mph - N/A   Clear
4:52 AM 14.0 °F - 10.9 °F 88% 30.28 in 7.0 mi Calm Calm - N/A   Clear
6:52 AM 12.9 °F 6.9 °F 10.0 °F 88% 30.31 in 7.0 mi NW 3.5 mph - N/A   Clear
7:52 AM 15.1 °F 9.4 °F 10.9 °F 84% 30.31 in 6.0 mi NNW 3.5 mph - N/A   Clear
8:52 AM 19.0 °F - 12.0 °F 74% 30.32 in 8.0 mi Calm Calm - N/A   Clear
9:52 AM 19.0 °F - 12.0 °F 74% 30.33 in 9.0 mi Calm Calm - N/A   Clear
10:52 AM 21.9 °F - 10.9 °F 63% 30.32 in 10.0 mi Calm Calm - N/A   Clear
11:52 AM 24.1 °F - 10.9 °F 57% 30.30 in 10.0 mi Calm Calm - N/A   Clear
12:52 PM 27.0 °F - 9.0 °F 47% 30.26 in 10.0 mi Calm Calm - N/A   Clear
1:52 PM 28.0 °F - 10.0 °F 47% 30.24 in 10.0 mi Calm Calm - N/A   Clear
2:52 PM 30.9 °F - 12.9 °F 47% 30.25 in 10.0 mi Calm Calm - N/A   Clear
3:52 PM 28.0 °F 24.2 °F 12.0 °F 51% 30.27 in 10.0 mi NW 3.5 mph - N/A   Clear
4:52 PM 27.0 °F - 10.0 °F 49% 30.26 in 10.0 mi Calm Calm - N/A   Clear
5:52 PM 24.1 °F - 14.0 °F 65% 30.27 in 10.0 mi Calm Calm - N/A   Clear
6:52 PM 23.0 °F 18.4 °F 12.9 °F 65% 30.27 in 10.0 mi SE 3.5 mph - N/A   Clear
7:52 PM 24.1 °F - 12.9 °F 62% 30.28 in 10.0 mi Calm Calm - N/A   Clear
8:52 PM 19.9 °F 14.9 °F 14.0 °F 78% 30.27 in 10.0 mi SE 3.5 mph - N/A   Clear
9:52 PM 19.9 °F - 12.9 °F 74% 30.29 in 10.0 mi Calm Calm - N/A   Clear
10:52 PM 18.0 °F - 12.9 °F 81% 30.29 in 9.0 mi Calm Calm - N/A   Clear
11:52 PM 16.0 °F - 12.0 °F 84% 30.28 in 8.0 mi Calm Calm - N/A   Clear